Regional Weather Roundup
Issued by NWS

Home | Current Version | Previous Version | Graphics & Text | Print | Product List | Glossary On
Versions: 1 2 3 4 5 6 7 8 9 10 11 12 13 14 15 16 17 18 19 20 21 22 23 24 25 26 27 28 29 30 31 32 33 34 35 36 37 38 39 40 41 42 43 44 45 46 47 48 49 50
000
ASUS43 KTOP 270959
RWRKS

WEATHER ROUNDUP FOR KANSAS
NATIONAL WEATHER SERVICE GOODLAND KS
500 AM CDT SAT MAY 27 2017

NOTE:  "FAIR" INDICATES FEW OR NO CLOUDS BELOW 12,000 FEET WITH NO
SIGNIFICANT WEATHER AND/OR OBSTRUCTIONS TO VISIBILITY.

KSZ001>006-013>018-027>032-041>047-271100-
NORTHWEST KANSAS

CITY           SKY/WX    TMP DP  RH WIND       PRES   REMARKS
GOODLAND       CLOUDY    50  50 100 W5        29.90S
HAYS           CLOUDY    58  56  93 E13       29.86F
HILL CITY      TSTM      60  56  86 SW5       29.86R
RUSSELL        TSTM      59  57  93 N8        29.91R
$$

KSZ061>065-074>080-084>089-271100-
SOUTHWEST KANSAS

CITY           SKY/WX    TMP DP  RH WIND       PRES   REMARKS
DODGE CITY     CLOUDY    67  60  78 N17G28    29.86R
ELKHART          N/A     53  46  77 NE2         N/A
GARDEN CITY    PTCLDY    58  51  78 NE17      29.84F
GREAT BEND     CLOUDY    59  55  87 N13       29.90S
LIBERAL        PTCLDY    62  58  86 SE6       29.76S
$$

KSZ066>073-081>083-090>101-271100-
SOUTHEAST KANSAS

CITY           SKY/WX    TMP DP  RH WIND       PRES   REMARKS
CHANUTE        CLEAR     68  65  90 E7        29.77F
COFFEYVILLE    CLEAR     69  69 100 E3        29.76R
HUTCHINSON     MOCLDY    66  62  87 NW9       29.85R
MEDICINE LODGE   N/A     66  62  87 CALM      29.74F
NEWTON         CLEAR     64  62  93 SE7       29.80R
PARSONS        CLEAR     70  66  87 E6        29.76F
WICHITA INTL   CLEAR     67  64  90 SE8       29.76R
WICHITA JABRA  CLEAR     65  63  93 SE6       29.77R
WINFIELD       CLEAR     67  64  90 SE6       29.77F
$$

KSZ007>012-019>026-033>040-048>060-102>105-271100-
NORTHEAST KANSAS

CITY           SKY/WX    TMP DP  RH WIND       PRES   REMARKS
CONCORDIA      TSTM      59  57  93 W21G41    29.93R FOG
EMPORIA        CLEAR     64  63  96 E8        29.77F
LAWRENCE       CLEAR     62  62 100 CALM      29.80F
MANHATTAN      PTCLDY    63  57  81 NE5       29.80R
OLATHE IND     CLEAR     66  64  93 E6        29.82F
OLATHE EXE     CLEAR     65  65 100 E7        29.82F
SALINA         CLOUDY    67  57  70 NW36G47   29.88R
TOPEKA BILLARD CLEAR     64  64 100 E3        29.78F
TOPEKA FORBES  CLEAR     63  62  97 E5        29.78F
$$



USA.gov is the U.S. government's official web portal to all federal, state and local government web resources and services.